User: anonymous   Login
Location: Clyde
(45.1830°S, 169.3170°E)
Time: 12:35:22
(UTC+13:00)
Language:

Meteor 1-25 Rocket - Orbit

View from above orbital plane
View from above orbital plane
View from above satellite
View from above satellite

Ground track
Ground track

The orbit data is extracted from the following two-line orbital elements,

1  8846U 76043B   19292.87528838 -.00000017  00000-0 -17581-4 0  9994
2  8846  81.2220 200.2811 0038557 121.1440 239.3521 14.08557528231408
Epoch (UTC): 19 October 2019 21:00:24
Eccentricity: 0.0038557
inclination: 81.2220°
perigee height: 836 km
apogee height: 892 km
right ascension of ascending node: 200.2811°
argument of perigee: 121.1440°
revolutions per day: 14.08557528
mean anomaly at epoch: 239.3521°
orbit number at epoch: 23140

The dashed part of the orbit path shows where the satellite is in the earth's shadow,  

DLR